Weather History for Marathon, FL

Change the Weather History Date:

Friday, November 23, 2012

  Actual Average Record
Temperature  
Mean Temperature 67 °F 75 °F  
Max Temperature 72 °F 80 °F 86 °F (2011)
Min Temperature 61 °F 70 °F 56 °F (2006)
Degree Days  
Heating Degree Days 0 0  
Month to date heating degree days 0 0  
Since 1 July heating degree days 0 0  
Cooling Degree Days 2 10  
Month to date cooling degree days 183 258  
Year to date cooling degree days 4941 4697  
Growing Degree Days 16 (Base 50)    
Moisture  
Dew Point 54 °F    
Average Humidity 58    
Maximum Humidity 73    
Minimum Humidity 43    
Precipitation  
Precipitation 0.00 in 0.07 in 0.02 in (2004)
Month to date precipitation 0.10 2.29  
Year to date precipitation 43.90 43.62  
Snow  
Snow 0.00 in - - ()
Month to date snowfall 0.0  
Since 1 July snowfall 0.0  
Since 1 September snowfall 0.0  
Snow Depth 0.00 in    
Sea Level Pressure  
Sea Level Pressure 30.11 in    
Wind  
Wind Speed 9 mph (North)    
Max Wind Speed 15 mph    
Max Gust Speed 23 mph    
Visibility 10 miles    
Events      
T = Trace of Precipitation, MM = Missing Value Source: NWS Daily Summary

Daily Weather History Graph

Daily Weather History Graph

Search for Another Location

Airport:

Trip Planner

Search our weather history database for the weather conditions in past years. The results will help you decide how hot, cold, wet, or windy it might be!

Date:

Astronomy

Nov. 23, 2012 Rise Set
Actual Time 6:46 AM EST 5:35 PM EST
Civil Twilight 6:21 AM EST 5:59 PM EST
Nautical Twilight 5:54 AM EST 6:27 PM EST
Astronomical Twilight 5:26 AM EST 6:54 PM EST
Moon 2:27 PM EST 2:28 AM EST
Length of Visible Light 11h 37m
Length of Day
10h 48m
Waxing Gibbous, 79% of the Moon is Illuminated
Nov 23
Waxing Gibbous
Nov 28
Full
Dec 6
Last Quarter
Dec 13
New
Dec 20
First Quarter

Hourly Weather History & Observations

Time (EST) Temp. Dew Point Humidity Pressure Visibility Wind Dir Wind Speed Gust Speed Precip Events Conditions
12:53 AM 64.0 °F 45.0 °F 50% 30.10 in 10.0 mi North 13.8 mph 21.9 mph N/A   Clear
1:53 AM 63.0 °F 46.9 °F 56% 30.10 in 10.0 mi North 11.5 mph - N/A   Clear
2:53 AM 62.1 °F 48.9 °F 62% 30.09 in 10.0 mi North 12.7 mph 18.4 mph N/A   Clear
3:53 AM 62.1 °F 50.0 °F 65% 30.09 in 10.0 mi North 9.2 mph 16.1 mph N/A   Clear
4:53 AM 61.0 °F 51.1 °F 70% 30.09 in 10.0 mi North 9.2 mph 16.1 mph N/A   Clear
5:53 AM 61.0 °F 51.1 °F 70% 30.10 in 10.0 mi North 9.2 mph - N/A   Clear
6:53 AM 61.0 °F 52.0 °F 72% 30.13 in 10.0 mi North 10.4 mph - N/A   Clear
7:53 AM 63.0 °F 53.1 °F 70% 30.13 in 10.0 mi North 10.4 mph - N/A   Clear
8:53 AM 66.0 °F 53.1 °F 63% 30.15 in 10.0 mi North 8.1 mph - N/A   Clear
9:53 AM 66.9 °F 54.0 °F 63% 30.16 in 10.0 mi North 9.2 mph - N/A   Clear
10:53 AM 71.1 °F 55.0 °F 57% 30.15 in 10.0 mi Variable 5.8 mph - N/A   Clear
11:53 AM 71.1 °F 55.0 °F 57% 30.13 in 10.0 mi NNW 9.2 mph - N/A   Clear
12:53 PM 71.1 °F 55.9 °F 59% 30.11 in 10.0 mi NNW 9.2 mph - N/A   Clear
1:53 PM 71.1 °F 57.9 °F 63% 30.08 in 10.0 mi NNW 6.9 mph - N/A   Clear
2:53 PM 71.1 °F 57.9 °F 63% 30.07 in 10.0 mi NNW 6.9 mph - N/A   Clear
3:53 PM 70.0 °F 57.9 °F 65% 30.06 in 10.0 mi NNW 4.6 mph - N/A   Clear
4:53 PM 69.1 °F 57.0 °F 65% 30.08 in 10.0 mi NW 8.1 mph - N/A   Clear
5:53 PM 68.0 °F 57.9 °F 70% 30.08 in 10.0 mi NNW 6.9 mph - N/A   Clear
6:53 PM 66.9 °F 57.9 °F 73% 30.09 in 10.0 mi NNW 6.9 mph - N/A   Clear
7:53 PM 68.0 °F 57.0 °F 68% 30.10 in 10.0 mi NNW 6.9 mph - N/A   Clear
8:53 PM 68.0 °F 57.0 °F 68% 30.11 in 10.0 mi NNW 8.1 mph - N/A   Clear
9:53 PM 68.0 °F 55.9 °F 65% 30.11 in 10.0 mi NNW 8.1 mph - N/A   Clear
10:53 PM 66.9 °F 53.1 °F 61% 30.11 in 10.0 mi NNW 9.2 mph 16.1 mph N/A   Scattered Clouds
11:53 PM 66.9 °F 45.0 °F 45% 30.10 in 10.0 mi North 9.2 mph 18.4 mph N/A   Partly Cloudy